Weather History for Point Pleasant, WV

Change the Weather History Date:

Monday, March 18, 2013

  Actual Average (KHTS) Record (KHTS)
Temperature  
Mean Temperature 44 °F 47 °F  
Max Temperature 53 °F 57 °F 85 °F (1908)
Min Temperature 35 °F 36 °F 13 °F (1941)
Degree Days  
Heating Degree Days 21 19  
Month to date heating degree days 386  
Since 1 July heating degree days 3887  
Cooling Degree Days 0 0  
Month to date cooling degree days 0  
Year to date cooling degree days 0  
Moisture  
Dew Point 42 °F    
Average Humidity 89    
Maximum Humidity 100    
Minimum Humidity 82    
Precipitation  
Precipitation 0.00 in 0.13 in 1.37 in (1898)
Month to date precipitation 2.26  
Year to date precipitation 8.30  
Snow  
Snow 0.00 in - - ()
Month to date snowfall  
Since 1 September snowfall  
Snow Depth -    
Sea Level Pressure  
Sea Level Pressure 29.81 in    
Wind  
Wind Speed 7 mph (SE)    
Max Wind Speed 16 mph    
Max Gust Speed 24 mph    
Visibility 7 miles    
Events Rain    
T = Trace of Precipitation, MM = Missing Value Source: NWS Daily Summary

Daily Weather History Graph

Daily Weather History Graph

Search for Another Location

Airport:

Trip Planner

Search our weather history database for the weather conditions in past years. The results will help you decide how hot, cold, wet, or windy it might be!

Date:

Astronomy

Mar. 18, 2013 Rise Set
Actual Time 7:34 AM EDT 7:38 PM EDT
Civil Twilight 7:08 AM EDT 8:05 PM EDT
Nautical Twilight 6:37 AM EDT 8:36 PM EDT
Astronomical Twilight 6:05 AM EDT 9:07 PM EDT
Moon 11:36 AM EDT (3/18) 1:33 AM EDT (3/18)
Length of Visible Light 12h 57m
Length of Day
12h 04m
Waxing Crescent, 40% of the Moon is Illuminated
Mar 18
Waxing Crescent
Mar 19
First Quarter
Mar 27
Full
Apr 3
Last Quarter
Apr 10
New

Hourly Weather History & Observations

Time (EDT) Temp. Windchill Dew Point Humidity Pressure Visibility Wind Dir Wind Speed Gust Speed Precip Events Conditions
12:15 AM 35.6 °F 29.9 °F 33.8 °F 93% 30.05 in 4.0 mi ENE 6.9 mph - N/A Rain Light Rain
12:35 AM 35.6 °F 29.2 °F 33.8 °F 93% 30.04 in 4.0 mi ENE 8.1 mph - N/A Rain Light Rain
12:55 AM 35.6 °F 29.2 °F 33.8 °F 93% 30.02 in 4.0 mi ENE 8.1 mph - N/A Rain Light Rain
1:15 AM 35.6 °F 29.2 °F 33.8 °F 93% 30.02 in 5.0 mi ENE 8.1 mph - N/A Rain Light Rain
1:35 AM 35.6 °F 29.9 °F 35.6 °F 100% 30.02 in 3.0 mi ENE 6.9 mph - N/A Rain Light Rain
1:55 AM 35.6 °F 27.5 °F 35.6 °F 100% 30.00 in 4.0 mi ENE 11.5 mph - N/A Rain Light Rain
2:15 AM 35.6 °F 31.7 °F 35.6 °F 100% 30.00 in 5.0 mi ENE 4.6 mph - N/A Rain Light Rain
2:35 AM 35.6 °F 29.9 °F 35.6 °F 100% 29.99 in 3.0 mi ENE 6.9 mph - N/A Rain Rain
2:55 AM 37.4 °F 32.8 °F 35.6 °F 93% 29.99 in 4.0 mi ENE 5.8 mph - N/A Rain Light Rain
3:15 AM 37.4 °F 32.1 °F 35.6 °F 93% 29.98 in 3.0 mi ENE 6.9 mph - N/A Rain Light Rain
3:35 AM 37.4 °F 32.8 °F 35.6 °F 93% 29.98 in 2.5 mi ENE 5.8 mph - N/A Rain Light Rain
3:55 AM 37.4 °F 31.4 °F 35.6 °F 93% 29.96 in 7.0 mi ENE 8.1 mph - N/A   Overcast
4:15 AM 37.4 °F 32.8 °F 35.6 °F 93% 29.95 in 7.0 mi ENE 5.8 mph - N/A   Overcast
4:35 AM 37.4 °F 32.8 °F 35.6 °F 93% 29.94 in 7.0 mi East 5.8 mph - N/A   Overcast
4:55 AM 37.4 °F 32.8 °F 35.6 °F 93% 29.92 in 7.0 mi ENE 5.8 mph - N/A   Overcast
5:15 AM 37.4 °F 30.8 °F 35.6 °F 93% 29.90 in 7.0 mi East 9.2 mph - N/A   Overcast
5:35 AM 37.4 °F 30.3 °F 35.6 °F 93% 29.88 in 7.0 mi East 10.4 mph - N/A   Overcast
5:55 AM 37.4 °F 30.8 °F 35.6 °F 93% 29.87 in 10.0 mi East 9.2 mph - N/A   Mostly Cloudy
6:15 AM 37.4 °F 32.1 °F 35.6 °F 93% 29.88 in 10.0 mi East 6.9 mph - N/A   Scattered Clouds
6:35 AM 37.4 °F 32.8 °F 35.6 °F 93% 29.87 in 10.0 mi ENE 5.8 mph - N/A   Scattered Clouds
7:15 AM 39.2 °F 35.9 °F 37.4 °F 93% 29.85 in 10.0 mi East 4.6 mph - N/A   Scattered Clouds
7:35 AM 39.2 °F 35.0 °F 37.4 °F 93% 29.83 in 10.0 mi East 5.8 mph - N/A   Clear
7:55 AM 39.2 °F 35.0 °F 37.4 °F 93% 29.83 in 10.0 mi East 5.8 mph - N/A   Scattered Clouds
8:15 AM 41.0 °F 35.2 °F 37.4 °F 87% 29.82 in 10.0 mi East 9.2 mph - N/A   Scattered Clouds
8:35 AM 41.0 °F 37.1 °F 37.4 °F 87% 29.82 in 10.0 mi East 5.8 mph - N/A   Mostly Cloudy
8:55 AM 41.0 °F 35.8 °F 37.4 °F 87% 29.81 in 1.8 mi East 8.1 mph - N/A   Unknown
9:15 AM 41.0 °F 39.0 °F 39.2 °F 93% 29.80 in 7.0 mi East 3.5 mph - N/A Rain Light Rain
9:35 AM 42.8 °F - 39.2 °F 87% 29.83 in 1.0 mi Calm Calm - N/A Rain Heavy Rain
9:55 AM 42.8 °F 40.1 °F 41.0 °F 93% 29.81 in 2.5 mi SE 4.6 mph - N/A Rain Rain
10:15 AM 42.8 °F 37.5 °F 41.0 °F 93% 29.82 in 4.0 mi SSE 9.2 mph - N/A Rain Rain
10:35 AM 42.8 °F 37.5 °F 41.0 °F 93% 29.81 in 4.0 mi SSE 9.2 mph - N/A Rain Rain
10:55 AM 44.6 °F 40.2 °F 41.0 °F 87% 29.80 in 4.0 mi SSE 8.1 mph - N/A Rain Light Rain
11:15 AM 44.6 °F 38.4 °F 42.8 °F 93% 29.77 in 4.0 mi SE 12.7 mph 19.6 mph N/A Rain Rain
11:35 AM 44.6 °F 40.7 °F 42.8 °F 93% 29.77 in 7.0 mi South 6.9 mph 19.6 mph N/A Rain Light Rain
11:55 AM 46.4 °F - 42.8 °F 87% 29.80 in 10.0 mi Calm Calm - N/A   Overcast
12:15 PM 46.4 °F 45.2 °F 42.8 °F 87% 29.80 in 4.0 mi SSE 3.5 mph - N/A Rain Rain
12:35 PM 46.4 °F 42.4 °F 44.6 °F 93% 29.79 in 3.0 mi SSE 8.1 mph - N/A Rain Rain
12:55 PM 46.4 °F 45.2 °F 44.6 °F 93% 29.79 in 5.0 mi SE 3.5 mph - N/A Rain Rain
1:15 PM 46.4 °F 45.2 °F 44.6 °F 93% 29.79 in 4.0 mi South 3.5 mph - N/A Rain Rain
1:35 PM 46.4 °F 41.5 °F 44.6 °F 93% 29.79 in 4.0 mi South 10.4 mph - N/A Rain Light Rain
1:55 PM 46.4 °F 41.9 °F 44.6 °F 93% 29.78 in 4.0 mi SSW 9.2 mph - N/A Rain Rain
2:15 PM 48.2 °F - 44.6 °F 87% 29.74 in 5.0 mi SE 9.2 mph 19.6 mph N/A Rain Light Rain
2:35 PM 50.0 °F - 46.4 °F 87% 29.73 in 7.0 mi South 10.4 mph 21.9 mph N/A   Mostly Cloudy
2:55 PM 50.0 °F - 46.4 °F 87% 29.66 in 10.0 mi SE 16.1 mph 24.2 mph N/A   Scattered Clouds
3:15 PM 50.0 °F - 46.4 °F 87% 29.66 in 10.0 mi South 13.8 mph 24.2 mph N/A   Mostly Cloudy
3:35 PM 51.8 °F - 46.4 °F 82% 29.69 in 10.0 mi South 12.7 mph 21.9 mph N/A   Mostly Cloudy
3:55 PM 51.8 °F - 48.2 °F 88% 29.70 in 10.0 mi South 8.1 mph - N/A   Mostly Cloudy
4:15 PM 51.8 °F - 48.2 °F 88% 29.69 in 10.0 mi SSW 9.2 mph - N/A   Overcast
4:35 PM 53.6 °F - 48.2 °F 82% 29.70 in 10.0 mi South 6.9 mph 16.1 mph N/A   Overcast
4:55 PM 53.6 °F - 48.2 °F 82% 29.71 in 10.0 mi South 4.6 mph - N/A   Overcast
5:15 PM 53.6 °F - 48.2 °F 82% 29.70 in 10.0 mi SSE 6.9 mph - N/A   Overcast
5:35 PM 53.6 °F - 48.2 °F 82% 29.69 in 10.0 mi South 3.5 mph - N/A   Overcast
5:55 PM 53.6 °F - 48.2 °F 82% 29.69 in 10.0 mi South 4.6 mph - N/A   Overcast
6:15 PM 53.6 °F - 48.2 °F 82% 29.70 in 10.0 mi South 3.5 mph - N/A   Overcast
6:35 PM 53.6 °F - 48.2 °F 82% 29.69 in 10.0 mi SSE 6.9 mph - N/A   Overcast
6:55 PM 53.6 °F - 48.2 °F 82% 29.70 in 10.0 mi South 4.6 mph - N/A   Overcast
7:15 PM 53.6 °F - 48.2 °F 82% 29.70 in 10.0 mi South 5.8 mph - N/A   Overcast
7:35 PM 53.6 °F - 48.2 °F 82% 29.70 in 10.0 mi South 6.9 mph - N/A   Overcast
7:55 PM 53.6 °F - 48.2 °F 82% 29.71 in 10.0 mi South 5.8 mph - N/A   Overcast
8:15 PM 53.6 °F - 48.2 °F 82% 29.71 in 10.0 mi SW 4.6 mph - N/A   Overcast
8:35 PM 53.6 °F - 48.2 °F 82% 29.71 in 10.0 mi SSW 4.6 mph - N/A   Overcast
8:55 PM 53.6 °F - 50.0 °F 88% 29.71 in 10.0 mi SSW 8.1 mph - N/A   Overcast
9:15 PM 53.6 °F - 50.0 °F 88% 29.71 in 10.0 mi SW 8.1 mph - N/A   Overcast
9:35 PM 53.6 °F - 50.0 °F 88% 29.71 in 10.0 mi SSW 4.6 mph - N/A   Overcast
9:55 PM 53.6 °F - 50.0 °F 88% 29.72 in 10.0 mi West 3.5 mph - N/A Rain Light Rain
10:15 PM 53.6 °F - 50.0 °F 88% 29.73 in 7.0 mi West 4.6 mph - N/A   Overcast
10:35 PM 51.8 °F - 48.2 °F 88% 29.74 in 10.0 mi West 5.8 mph - N/A   Overcast
10:55 PM 51.8 °F - 46.4 °F 82% 29.75 in 7.0 mi West 5.8 mph - N/A Rain Light Rain
11:15 PM 51.8 °F - 46.4 °F 82% 29.75 in 10.0 mi West 6.9 mph - N/A   Overcast
11:55 PM 51.8 °F - 46.4 °F 82% 29.76 in 10.0 mi West 10.4 mph 21.9 mph N/A   Overcast